星链-2423 (STARLINK-2423 )

导读 | 星芒AI

STARLINK-2423 是 SpaceX Starlink 卫星互联网项目中的第 2423 颗卫星,属于低轨通信卫星群。它于 2023 年发射,旨在为全球用户提供高速、低延迟的互联网服务。该卫星采用现代化设计,配备推进系统和激光通信链路,以提升网络效率和稳定性。Starlink 项目致力于改善偏远地区网络覆盖,支持多种应用场景,包括民用通信、科研和应急响应等。

基本信息
目录编号:
47833
目录名称:
STARLINK-2423
国际标识:
2021-018AY
轨道中心:
EARTH
卫星名称:
星链-2423
卫星全名:
星链-2423 (STARLINK-2423 )
卫星状态:
在轨 (已飞行1694 天)
发射日期:
2021-03-11 UTC
国别 :
美国 (US)
星等 :
--
轨道信息
数据来源 国际轨道数据
星历时间: 2025-10-30T13:09:24+0800
7小时前
查看轨道信息
半长轴: 6925.341km
偏心率: 0.0001277
轨道倾角: 53.051°
近地点辐角 88.189°
升交点赤经 117.343°
平近点角 271.925°
近地点: 546.321km
远地点: 548.091km
周期: 95.592分钟
每日圈数: 15.064025
详细信息
固有亮度:
5
最大亮度:
2.5
卫星平台:
Starlink V1.0
覆盖范围:
全球
运营商:
太空探索技术公司
运营商所在国:
美国
制造商(研发单位):
太空探索技术公司
制造商所在国:
美国
使用方式:
暂无
卫星简介
星链(Starlink)计划是由太空探索技术公司(SpaceX)提出的一个巨型低轨卫星互联网星座项目,计划在2019年至2024年间在太空搭建由约1.2万颗卫星组成的“星链”网络,其中1584颗将部署在地球上空550千米处的近地轨道,并从2020年开始工作。该卫星仍在工作。
2D轨道图
3D轨道图
轨道高度分析图
轨道倾角分析图
轨道综合分析图
查看轨道综合分析图